Time,TemperatureF,DewpointF,PressureIn,WindDirection,WindDirectionDegrees,WindSpeedMPH,WindSpeedGustMPH,Humidity,HourlyPrecipIn,Conditions,Clouds,dailyrainin,SoftwareType,DateUTC
2013-11-23 00:02:00,47.1,47.1,29.78,North,0,0.0,5.0,100,-99.99,,,-99.99,PWS SA v1.10,2013-11-23 05:02:00,
2013-11-23 00:04:00,47.1,47.1,29.77,SW,228,6.8,6.8,100,-99.99,,,-99.99,PWS SA v1.10,2013-11-23 05:04:00,
2013-11-23 00:06:00,47.3,47.3,29.77,North,0,0.0,6.0,100,-99.99,,,-99.99,PWS SA v1.10,2013-11-23 05:06:00,
2013-11-23 00:08:00,47.2,47.3,29.77,SW,233,3.4,6.0,100,-99.99,,,-99.99,PWS SA v1.10,2013-11-23 05:08:00,
2013-11-23 00:10:00,47.2,47.1,29.77,WSW,252,1.7,6.0,100,-99.99,,,-99.99,PWS SA v1.10,2013-11-23 05:10:00,
2013-11-23 00:16:00,47.3,47.2,29.77,North,0,0.0,6.0,100,-99.99,,,-99.99,PWS SA v1.10,2013-11-23 05:16:00,
2013-11-23 00:22:00,47.4,47.4,29.77,SW,226,1.7,6.0,100,-99.99,,,-99.99,PWS SA v1.10,2013-11-23 05:22:00,
2013-11-23 00:26:00,47.5,47.6,29.77,SW,236,6.8,6.8,100,-99.99,,,-99.99,PWS SA v1.10,2013-11-23 05:26:00,
2013-11-23 00:32:00,47.5,47.5,29.76,WSW,239,5.1,6.0,100,-99.99,,,-99.99,PWS SA v1.10,2013-11-23 05:32:00,
2013-11-23 00:38:00,47.5,47.6,29.77,North,0,0.0,6.0,100,-99.99,,,-99.99,PWS SA v1.10,2013-11-23 05:38:00,
2013-11-23 00:44:00,47.6,47.4,29.77,North,0,0.0,5.0,100,-99.99,,,-99.99,PWS SA v1.10,2013-11-23 05:44:00,
2013-11-23 00:50:00,47.6,47.6,29.76,North,0,0.0,5.0,100,-99.99,,,-99.99,PWS SA v1.10,2013-11-23 05:50:00,
2013-11-23 00:56:00,47.6,47.5,29.77,North,0,0.0,5.0,100,-99.99,,,-99.99,PWS SA v1.10,2013-11-23 05:56:00,
2013-11-23 01:02:00,47.6,47.8,29.77,WSW,238,1.7,1.7,100,-99.99,,,-99.99,PWS SA v1.10,2013-11-23 06:02:00,
2013-11-23 01:08:00,47.6,47.6,29.77,North,0,0.0,5.0,100,-99.99,,,-99.99,PWS SA v1.10,2013-11-23 06:08:00,
2013-11-23 01:14:00,47.8,47.8,29.76,North,0,0.0,5.0,100,-99.99,,,-99.99,PWS SA v1.10,2013-11-23 06:14:00,
2013-11-23 01:20:00,47.8,47.8,29.76,North,0,0.0,0.0,100,-99.99,,,-99.99,PWS SA v1.10,2013-11-23 06:20:00,
2013-11-23 01:26:00,47.8,47.7,29.76,WSW,237,1.7,1.7,100,-99.99,,,-99.99,PWS SA v1.10,2013-11-23 06:26:00,
2013-11-23 01:32:00,47.9,48.1,29.76,North,0,0.0,1.0,100,-99.99,,,-99.99,PWS SA v1.10,2013-11-23 06:32:00,
2013-11-23 01:38:00,47.9,48.1,29.76,North,0,0.0,0.0,100,-99.99,,,-99.99,PWS SA v1.10,2013-11-23 06:38:00,
2013-11-23 01:44:00,47.7,47.7,29.76,North,0,0.0,1.0,100,-99.99,,,-99.99,PWS SA v1.10,2013-11-23 06:44:00,
2013-11-23 01:50:00,47.6,47.7,29.75,North,0,0.0,3.0,100,-99.99,,,-99.99,PWS SA v1.10,2013-11-23 06:50:00,
2013-11-23 01:56:00,47.4,47.0,29.76,WSW,252,5.1,5.1,99,-99.99,,,-99.99,PWS SA v1.10,2013-11-23 06:56:00,
2013-11-23 02:02:00,47.5,46.6,29.76,North,0,0.0,6.0,96,-99.99,,,-99.99,PWS SA v1.10,2013-11-23 07:02:00,
2013-11-23 02:08:00,47.4,45.7,29.76,NW,324,3.4,8.0,94,-99.99,,,-99.99,PWS SA v1.10,2013-11-23 07:08:00,
2013-11-23 02:14:00,47.4,44.7,29.76,NW,326,5.1,8.0,92,-99.99,,,-99.99,PWS SA v1.10,2013-11-23 07:14:00,
2013-11-23 02:20:00,47.5,44.7,29.75,West,260,3.4,8.0,91,-99.99,,,-99.99,PWS SA v1.10,2013-11-23 07:20:00,
2013-11-23 02:26:00,47.5,44.9,29.76,North,0,0.0,5.0,91,-99.99,,,-99.99,PWS SA v1.10,2013-11-23 07:26:00,
2013-11-23 02:32:00,47.1,44.6,29.75,WNW,299,1.7,5.0,91,-99.99,,,-99.99,PWS SA v1.10,2013-11-23 07:32:00,
2013-11-23 02:38:00,47.1,43.7,29.76,North,0,0.0,6.0,89,-99.99,,,-99.99,PWS SA v1.10,2013-11-23 07:38:00,
2013-11-23 02:44:00,47.3,44.1,29.75,North,0,0.0,10.0,89,-99.99,,,-99.99,PWS SA v1.10,2013-11-23 07:44:00,
2013-11-23 02:50:00,46.9,43.8,29.75,West,261,3.4,10.0,89,-99.99,,,-99.99,PWS SA v1.10,2013-11-23 07:50:00,
2013-11-23 02:56:00,46.7,43.7,29.74,West,270,6.8,6.8,89,-99.99,,,-99.99,PWS SA v1.10,2013-11-23 07:56:00,
2013-11-23 03:02:00,46.9,42.9,29.75,SW,235,1.7,6.0,86,-99.99,,,-99.99,PWS SA v1.10,2013-11-23 08:02:00,
2013-11-23 03:08:00,46.7,42.0,29.75,WSW,246,3.4,15.0,84,-99.99,,,-99.99,PWS SA v1.10,2013-11-23 08:08:00,
2013-11-23 03:14:00,46.6,40.8,29.74,West,269,3.4,15.0,81,-99.99,,,-99.99,PWS SA v1.10,2013-11-23 08:14:00,
2013-11-23 03:20:00,46.6,41.1,29.75,North,0,0.0,6.0,81,-99.99,,,-99.99,PWS SA v1.10,2013-11-23 08:20:00,
2013-11-23 03:26:00,46.6,40.3,29.75,North,0,0.0,6.0,79,-99.99,,,-99.99,PWS SA v1.10,2013-11-23 08:26:00,
2013-11-23 03:32:00,46.6,40.6,29.75,North,0,0.0,6.0,80,-99.99,,,-99.99,PWS SA v1.10,2013-11-23 08:32:00,
2013-11-23 03:38:00,46.3,40.1,29.75,West,267,5.1,6.0,79,-99.99,,,-99.99,PWS SA v1.10,2013-11-23 08:38:00,
2013-11-23 03:44:00,46.4,39.6,29.75,NW,306,1.7,6.0,78,-99.99,,,-99.99,PWS SA v1.10,2013-11-23 08:44:00,
2013-11-23 03:50:00,46.4,39.7,29.76,ESE,107,1.7,6.0,78,-99.99,,,-99.99,PWS SA v1.10,2013-11-23 08:50:00,
2013-11-23 03:56:00,46.1,39.4,29.76,WSW,250,6.8,6.8,77,-99.99,,,-99.99,PWS SA v1.10,2013-11-23 08:56:00,
2013-11-23 04:02:00,46.4,38.6,29.76,NW,325,3.4,8.0,74,-99.99,,,-99.99,PWS SA v1.10,2013-11-23 09:02:00,
2013-11-23 04:08:00,45.9,38.5,29.76,WNW,303,3.4,8.0,76,-99.99,,,-99.99,PWS SA v1.10,2013-11-23 09:08:00,
2013-11-23 04:14:00,45.9,37.8,29.76,NNE,23,1.7,6.0,74,-99.99,,,-99.99,PWS SA v1.10,2013-11-23 09:14:00,
2013-11-23 04:20:00,45.7,37.4,29.76,NNW,337,10.2,10.2,73,-99.99,,,-99.99,PWS SA v1.10,2013-11-23 09:20:00,
2013-11-23 04:26:00,45.6,36.9,29.77,WSW,249,1.7,13.0,72,-99.99,,,-99.99,PWS SA v1.10,2013-11-23 09:26:00,
2013-11-23 04:32:00,45.3,36.4,29.76,NNW,329,6.8,13.0,71,-99.99,,,-99.99,PWS SA v1.10,2013-11-23 09:32:00,
2013-11-23 04:38:00,45.5,36.6,29.77,NNW,339,5.1,13.0,72,-99.99,,,-99.99,PWS SA v1.10,2013-11-23 09:38:00,
2013-11-23 04:44:00,45.1,36.4,29.77,WNW,300,3.4,10.0,72,-99.99,,,-99.99,PWS SA v1.10,2013-11-23 09:44:00,
2013-11-23 04:50:00,44.8,36.6,29.78,North,0,0.0,11.0,73,-99.99,,,-99.99,PWS SA v1.10,2013-11-23 09:50:00,
2013-11-23 04:56:00,44.8,35.5,29.78,NNW,333,1.7,11.0,70,-99.99,,,-99.99,PWS SA v1.10,2013-11-23 09:56:00,
2013-11-23 05:02:00,44.4,35.6,29.78,NNW,343,3.4,6.0,71,-99.99,,,-99.99,PWS SA v1.10,2013-11-23 10:02:00,
2013-11-23 05:08:00,44.3,35.9,29.78,North,5,5.1,6.0,73,-99.99,,,-99.99,PWS SA v1.10,2013-11-23 10:08:00,
2013-11-23 05:14:00,43.9,35.0,29.78,North,8,3.4,6.0,71,-99.99,,,-99.99,PWS SA v1.10,2013-11-23 10:14:00,
2013-11-23 05:20:00,43.8,35.1,29.78,WSW,244,1.7,8.0,72,-99.99,,,-99.99,PWS SA v1.10,2013-11-23 10:20:00,
2013-11-23 05:26:00,43.4,34.8,29.79,NNW,329,5.1,8.0,72,-99.99,,,-99.99,PWS SA v1.10,2013-11-23 10:26:00,
2013-11-23 05:32:00,43.4,35.1,29.79,WNW,295,3.4,6.0,72,-99.99,,,-99.99,PWS SA v1.10,2013-11-23 10:32:00,
2013-11-23 05:38:00,43.1,34.5,29.79,WNW,282,13.7,13.7,72,-99.99,,,-99.99,PWS SA v1.10,2013-11-23 10:38:00,
2013-11-23 05:44:00,43.1,33.9,29.79,SW,227,3.4,13.0,70,-99.99,,,-99.99,PWS SA v1.10,2013-11-23 10:44:00,
2013-11-23 05:50:00,43.0,34.5,29.79,West,281,1.7,13.0,73,-99.99,,,-99.99,PWS SA v1.10,2013-11-23 10:50:00,
2013-11-23 05:56:00,42.9,34.0,29.79,NNW,330,8.5,15.0,71,-99.99,,,-99.99,PWS SA v1.10,2013-11-23 10:56:00,
2013-11-23 06:02:00,42.8,33.9,29.80,NNW,337,10.2,15.0,71,-99.99,,,-99.99,PWS SA v1.10,2013-11-23 11:02:00,
2013-11-23 06:08:00,42.7,34.2,29.80,NNW,337,5.1,10.0,72,-99.99,,,-99.99,PWS SA v1.10,2013-11-23 11:08:00,
2013-11-23 06:14:00,42.5,34.0,29.80,NNW,335,1.7,10.0,72,-99.99,,,-99.99,PWS SA v1.10,2013-11-23 11:14:00,
2013-11-23 06:20:00,42.3,33.8,29.80,West,278,1.7,5.0,72,-99.99,,,-99.99,PWS SA v1.10,2013-11-23 11:20:00,
2013-11-23 06:26:00,42.1,33.3,29.80,SW,225,3.4,5.0,72,-99.99,,,-99.99,PWS SA v1.10,2013-11-23 11:26:00,
2013-11-23 06:32:00,41.9,33.1,29.81,WNW,283,5.1,10.0,72,-99.99,,,-99.99,PWS SA v1.10,2013-11-23 11:32:00,
2013-11-23 06:38:00,42.1,33.4,29.80,North,0,0.0,13.0,72,-99.99,,,-99.99,PWS SA v1.10,2013-11-23 11:38:00,
2013-11-23 06:44:00,41.8,32.6,29.80,NW,312,6.8,13.0,70,-99.99,,,-99.99,PWS SA v1.10,2013-11-23 11:44:00,
2013-11-23 06:50:00,41.7,33.2,29.81,WNW,293,6.8,13.0,72,-99.99,,,-99.99,PWS SA v1.10,2013-11-23 11:50:00,
2013-11-23 06:56:00,41.5,33.4,29.82,NNW,333,6.8,10.0,73,-99.99,,,-99.99,PWS SA v1.10,2013-11-23 11:56:00,
2013-11-23 07:02:00,41.5,33.3,29.82,North,0,0.0,10.0,72,-99.99,,,-99.99,PWS SA v1.10,2013-11-23 12:02:00,
2013-11-23 07:08:00,41.2,33.1,29.82,North,0,0.0,6.0,73,-99.99,,,-99.99,PWS SA v1.10,2013-11-23 12:08:00,
2013-11-23 07:14:00,41.1,33.0,29.82,NW,322,11.9,11.9,73,-99.99,,,-99.99,PWS SA v1.10,2013-11-23 12:14:00,
2013-11-23 07:20:00,41.1,33.0,29.83,West,265,3.4,11.0,74,-99.99,,,-99.99,PWS SA v1.10,2013-11-23 12:20:00,
2013-11-23 07:26:00,41.0,33.3,29.83,ENE,59,3.4,11.0,74,-99.99,,,-99.99,PWS SA v1.10,2013-11-23 12:26:00,
2013-11-23 07:32:00,41.0,32.4,29.83,WSW,238,1.7,10.0,72,-99.99,,,-99.99,PWS SA v1.10,2013-11-23 12:32:00,
2013-11-23 07:38:00,41.0,32.9,29.83,NW,310,1.7,11.0,73,-99.99,,,-99.99,PWS SA v1.10,2013-11-23 12:38:00,
2013-11-23 07:44:00,41.0,33.0,29.84,North,0,0.0,11.0,74,-99.99,,,-99.99,PWS SA v1.10,2013-11-23 12:44:00,
2013-11-23 07:50:00,41.0,33.2,29.83,SW,235,1.7,11.0,74,-99.99,,,-99.99,PWS SA v1.10,2013-11-23 12:50:00,
2013-11-23 07:56:00,40.8,32.8,29.84,West,281,11.9,11.9,74,-99.99,,,-99.99,PWS SA v1.10,2013-11-23 12:56:00,
2013-11-23 08:02:00,40.9,33.0,29.85,WNW,301,1.7,11.0,74,-99.99,,,-99.99,PWS SA v1.10,2013-11-23 13:02:00,
2013-11-23 08:08:00,41.1,33.1,29.84,North,0,0.0,6.0,74,-99.99,,,-99.99,PWS SA v1.10,2013-11-23 13:08:00,
2013-11-23 08:14:00,41.0,33.0,29.85,East,87,3.4,5.0,74,-99.99,,,-99.99,PWS SA v1.10,2013-11-23 13:14:00,
2013-11-23 08:20:00,41.3,33.4,29.85,NNW,327,3.4,10.0,73,-99.99,,,-99.99,PWS SA v1.10,2013-11-23 13:20:00,
2013-11-23 08:26:00,41.2,32.6,29.85,NNW,343,1.7,10.0,72,-99.99,,,-99.99,PWS SA v1.10,2013-11-23 13:26:00,
2013-11-23 08:32:00,41.1,32.6,29.86,WNW,298,6.8,6.8,73,-99.99,,,-99.99,PWS SA v1.10,2013-11-23 13:32:00,
2013-11-23 08:38:00,41.3,32.3,29.86,NNE,20,5.1,12.0,71,-99.99,,,-99.99,PWS SA v1.10,2013-11-23 13:38:00,
2013-11-23 08:44:00,41.6,32.0,29.86,NW,325,5.1,12.0,70,-99.99,,,-99.99,PWS SA v1.10,2013-11-23 13:44:00,
2013-11-23 08:50:00,41.6,32.4,29.86,WNW,293,3.4,11.0,71,-99.99,,,-99.99,PWS SA v1.10,2013-11-23 13:50:00,
2013-11-23 08:56:00,41.6,32.5,29.86,WNW,292,1.7,13.0,71,-99.99,,,-99.99,PWS SA v1.10,2013-11-23 13:56:00,
2013-11-23 09:02:00,41.8,32.0,29.87,NW,318,5.1,13.0,68,-99.99,,,-99.99,PWS SA v1.10,2013-11-23 14:02:00,
2013-11-23 09:08:00,41.7,31.3,29.87,NW,325,3.4,10.0,67,-99.99,,,-99.99,PWS SA v1.10,2013-11-23 14:08:00,
2013-11-23 09:14:00,41.9,30.9,29.86,NNW,334,3.4,10.0,65,-99.99,,,-99.99,PWS SA v1.10,2013-11-23 14:14:00,
2013-11-23 09:20:00,41.9,30.6,29.86,NNW,330,6.8,10.0,65,-99.99,,,-99.99,PWS SA v1.10,2013-11-23 14:20:00,
2013-11-23 09:26:00,41.9,30.5,29.87,West,272,5.1,11.0,64,-99.99,,,-99.99,PWS SA v1.10,2013-11-23 14:26:00,
2013-11-23 09:32:00,42.4,31.1,29.87,WSW,250,3.4,11.0,65,-99.99,,,-99.99,PWS SA v1.10,2013-11-23 14:32:00,
2013-11-23 09:38:00,42.6,29.8,29.87,North,0,0.0,10.0,61,-99.99,,,-99.99,PWS SA v1.10,2013-11-23 14:38:00,
2013-11-23 09:44:00,42.8,29.7,29.87,West,261,8.5,8.5,60,-99.99,,,-99.99,PWS SA v1.10,2013-11-23 14:44:00,
2013-11-23 09:50:00,42.9,30.3,29.87,WNW,288,1.7,13.0,61,-99.99,,,-99.99,PWS SA v1.10,2013-11-23 14:50:00,
2013-11-23 09:56:00,43.1,29.8,29.87,WNW,287,1.7,13.0,59,-99.99,,,-99.99,PWS SA v1.10,2013-11-23 14:56:00,
2013-11-23 10:02:00,43.0,29.7,29.86,NNW,338,8.5,13.0,59,-99.99,,,-99.99,PWS SA v1.10,2013-11-23 15:02:00,
2013-11-23 10:08:00,43.2,28.9,29.86,North,354,3.4,10.0,57,-99.99,,,-99.99,PWS SA v1.10,2013-11-23 15:08:00,
2013-11-23 10:14:00,43.0,28.6,29.85,WNW,301,3.4,11.0,57,-99.99,,,-99.99,PWS SA v1.10,2013-11-23 15:14:00,
2013-11-23 10:20:00,43.4,29.5,29.86,NW,324,3.4,11.0,58,-99.99,,,-99.99,PWS SA v1.10,2013-11-23 15:20:00,
2013-11-23 10:26:00,43.2,30.0,29.85,NNW,335,8.5,11.0,59,-99.99,,,-99.99,PWS SA v1.10,2013-11-23 15:26:00,
2013-11-23 10:32:00,43.7,29.0,29.85,NW,311,1.7,8.0,57,-99.99,,,-99.99,PWS SA v1.10,2013-11-23 15:32:00,
2013-11-23 10:38:00,43.6,29.1,29.86,North,0,0.0,11.0,57,-99.99,,,-99.99,PWS SA v1.10,2013-11-23 15:38:00,
2013-11-23 10:44:00,43.8,27.7,29.85,North,0,0.0,11.0,53,-99.99,,,-99.99,PWS SA v1.10,2013-11-23 15:44:00,
2013-11-23 10:50:00,43.6,27.3,29.85,West,273,8.5,15.0,53,-99.99,,,-99.99,PWS SA v1.10,2013-11-23 15:50:00,
2013-11-23 10:56:00,43.8,28.0,29.85,NNW,340,3.4,15.0,54,-99.99,,,-99.99,PWS SA v1.10,2013-11-23 15:56:00,
2013-11-23 11:02:00,43.4,28.4,29.85,WNW,286,6.8,15.0,56,-99.99,,,-99.99,PWS SA v1.10,2013-11-23 16:02:00,
2013-11-23 11:08:00,43.3,28.4,29.84,WNW,282,3.4,8.0,56,-99.99,,,-99.99,PWS SA v1.10,2013-11-23 16:08:00,
2013-11-23 11:14:00,43.6,27.2,29.84,North,0,0.0,8.0,53,-99.99,,,-99.99,PWS SA v1.10,2013-11-23 16:14:00,
2013-11-23 11:20:00,43.6,26.0,29.83,NNW,344,5.1,6.0,51,-99.99,,,-99.99,PWS SA v1.10,2013-11-23 16:20:00,
2013-11-23 11:26:00,43.4,25.9,29.84,NE,35,1.7,6.0,51,-99.99,,,-99.99,PWS SA v1.10,2013-11-23 16:26:00,
2013-11-23 11:32:00,43.1,25.4,29.83,WNW,290,3.4,6.0,50,-99.99,,,-99.99,PWS SA v1.10,2013-11-23 16:32:00,
2013-11-23 11:38:00,43.3,25.6,29.83,WNW,296,5.1,6.0,50,-99.99,,,-99.99,PWS SA v1.10,2013-11-23 16:38:00,
2013-11-23 11:44:00,43.4,24.1,29.82,NNW,337,11.9,11.9,47,-99.99,,,-99.99,PWS SA v1.10,2013-11-23 16:44:00,
2013-11-23 11:50:00,43.6,24.4,29.82,NNE,22,1.7,11.0,47,-99.99,,,-99.99,PWS SA v1.10,2013-11-23 16:50:00,
2013-11-23 11:56:00,43.8,23.5,29.82,NW,307,6.8,11.0,45,-99.99,,,-99.99,PWS SA v1.10,2013-11-23 16:56:00,
2013-11-23 12:02:00,43.9,22.6,29.82,NNW,327,3.4,6.0,43,-99.99,,,-99.99,PWS SA v1.10,2013-11-23 17:02:00,
2013-11-23 12:08:00,43.7,22.8,29.82,North,358,5.1,13.0,44,-99.99,,,-99.99,PWS SA v1.10,2013-11-23 17:08:00,
2013-11-23 12:14:00,44.2,21.9,29.81,North,353,6.8,13.0,42,-99.99,,,-99.99,PWS SA v1.10,2013-11-23 17:14:00,
2013-11-23 12:20:00,44.0,23.2,29.81,NNW,348,3.4,11.0,44,-99.99,,,-99.99,PWS SA v1.10,2013-11-23 17:20:00,
2013-11-23 12:26:00,44.3,23.4,29.81,WNW,286,10.2,11.0,44,-99.99,,,-99.99,PWS SA v1.10,2013-11-23 17:26:00,
2013-11-23 12:32:00,45.1,23.4,29.81,North,353,5.1,10.0,43,-99.99,,,-99.99,PWS SA v1.10,2013-11-23 17:32:00,
2013-11-23 12:38:00,45.2,22.6,29.81,NW,316,1.7,12.0,41,-99.99,,,-99.99,PWS SA v1.10,2013-11-23 17:38:00,
2013-11-23 12:44:00,45.7,23.7,29.80,NE,37,5.1,12.0,42,-99.99,,,-99.99,PWS SA v1.10,2013-11-23 17:44:00,
2013-11-23 12:50:00,45.5,25.5,29.80,WSW,257,5.1,10.0,45,-99.99,,,-99.99,PWS SA v1.10,2013-11-23 17:50:00,
2013-11-23 12:56:00,45.6,27.1,29.80,WNW,300,8.5,10.0,49,-99.99,,,-99.99,PWS SA v1.10,2013-11-23 17:56:00,
2013-11-23 13:02:00,45.3,22.4,29.80,NW,317,1.7,10.0,40,-99.99,,,-99.99,PWS SA v1.10,2013-11-23 18:02:00,
2013-11-23 13:08:00,45.0,21.7,29.79,NNE,24,5.1,10.0,40,-99.99,,,-99.99,PWS SA v1.10,2013-11-23 18:08:00,
2013-11-23 13:14:00,45.0,23.6,29.79,WNW,292,1.7,10.0,43,-99.99,,,-99.99,PWS SA v1.10,2013-11-23 18:14:00,
2013-11-23 13:20:00,44.6,22.7,29.79,WNW,298,5.1,17.0,42,-99.99,,,-99.99,PWS SA v1.10,2013-11-23 18:20:00,
2013-11-23 13:26:00,44.6,23.7,29.79,WSW,256,1.7,17.0,44,-99.99,,,-99.99,PWS SA v1.10,2013-11-23 18:26:00,
2013-11-23 13:32:00,44.3,24.1,29.79,WNW,296,6.8,17.0,46,-99.99,,,-99.99,PWS SA v1.10,2013-11-23 18:32:00,
2013-11-23 13:38:00,44.1,23.7,29.79,West,269,3.4,6.0,44,-99.99,,,-99.99,PWS SA v1.10,2013-11-23 18:38:00,
2013-11-23 13:44:00,43.4,24.9,29.79,South,177,3.4,11.0,48,-99.99,,,-99.99,PWS SA v1.10,2013-11-23 18:44:00,
2013-11-23 13:50:00,43.5,25.4,29.79,North,0,0.0,11.0,49,-99.99,,,-99.99,PWS SA v1.10,2013-11-23 18:50:00,
2013-11-23 13:56:00,43.3,23.3,29.79,North,0,0.0,6.0,46,-99.99,,,-99.99,PWS SA v1.10,2013-11-23 18:56:00,
2013-11-23 14:02:00,43.7,22.3,29.79,NNW,336,5.1,6.0,43,-99.99,,,-99.99,PWS SA v1.10,2013-11-23 19:02:00,
2013-11-23 14:08:00,43.9,21.9,29.78,NNW,340,3.4,6.0,42,-99.99,,,-99.99,PWS SA v1.10,2013-11-23 19:08:00,
2013-11-23 14:14:00,43.9,22.1,29.78,WNW,285,6.8,8.0,42,-99.99,,,-99.99,PWS SA v1.10,2013-11-23 19:14:00,
2013-11-23 14:20:00,43.8,23.0,29.78,SW,231,5.1,8.0,44,-99.99,,,-99.99,PWS SA v1.10,2013-11-23 19:20:00,
2013-11-23 14:26:00,44.9,21.9,29.78,NNW,335,8.5,8.5,41,-99.99,,,-99.99,PWS SA v1.10,2013-11-23 19:26:00,
2013-11-23 14:32:00,45.1,20.1,29.78,NW,308,5.1,8.0,38,-99.99,,,-99.99,PWS SA v1.10,2013-11-23 19:32:00,
2013-11-23 14:38:00,45.4,20.8,29.78,NNW,343,3.4,8.0,38,-99.99,,,-99.99,PWS SA v1.10,2013-11-23 19:38:00,
2013-11-23 14:44:00,44.0,20.9,29.79,NW,317,5.1,10.0,40,-99.99,,,-99.99,PWS SA v1.10,2013-11-23 19:44:00,
2013-11-23 14:50:00,43.6,22.1,29.79,West,280,3.4,10.0,42,-99.99,,,-99.99,PWS SA v1.10,2013-11-23 19:50:00,
2013-11-23 14:56:00,43.3,22.3,29.79,WNW,303,1.7,10.0,43,-99.99,,,-99.99,PWS SA v1.10,2013-11-23 19:56:00,
2013-11-23 15:02:00,43.1,22.7,29.79,NNW,328,5.1,8.0,45,-99.99,,,-99.99,PWS SA v1.10,2013-11-23 20:02:00,
2013-11-23 15:08:00,43.4,23.2,29.79,West,265,8.5,8.5,46,-99.99,,,-99.99,PWS SA v1.10,2013-11-23 20:08:00,
2013-11-23 15:14:00,43.3,21.1,29.78,NNW,331,10.2,10.2,41,-99.99,,,-99.99,PWS SA v1.10,2013-11-23 20:14:00,
2013-11-23 15:20:00,42.8,21.7,29.78,WSW,255,3.4,10.0,43,-99.99,,,-99.99,PWS SA v1.10,2013-11-23 20:20:00,
2013-11-23 15:26:00,42.0,18.9,29.79,NNW,338,3.4,10.0,40,-99.99,,,-99.99,PWS SA v1.10,2013-11-23 20:26:00,
2013-11-23 15:32:00,41.5,18.8,29.78,North,0,0.0,10.0,40,-99.99,,,-99.99,PWS SA v1.10,2013-11-23 20:32:00,
2013-11-23 15:38:00,41.2,19.2,29.78,NW,322,3.4,15.0,41,-99.99,,,-99.99,PWS SA v1.10,2013-11-23 20:38:00,
2013-11-23 15:44:00,41.0,18.8,29.78,North,0,0.0,15.0,41,-99.99,,,-99.99,PWS SA v1.10,2013-11-23 20:44:00,
2013-11-23 15:50:00,40.7,20.0,29.78,NNW,348,1.7,11.0,44,-99.99,,,-99.99,PWS SA v1.10,2013-11-23 20:50:00,
2013-11-23 15:56:00,40.3,20.3,29.78,North,0,0.0,11.0,45,-99.99,,,-99.99,PWS SA v1.10,2013-11-23 20:56:00,
2013-11-23 16:02:00,40.0,19.9,29.79,NW,316,1.7,3.0,45,-99.99,,,-99.99,PWS SA v1.10,2013-11-23 21:02:00,
2013-11-23 16:08:00,39.5,19.4,29.79,NNW,327,3.4,3.4,45,-99.99,,,-99.99,PWS SA v1.10,2013-11-23 21:08:00,
2013-11-23 16:14:00,39.1,19.0,29.79,NNW,348,1.7,5.0,44,-99.99,,,-99.99,PWS SA v1.10,2013-11-23 21:14:00,
2013-11-23 16:20:00,38.9,18.0,29.79,NNW,336,8.5,8.5,43,-99.99,,,-99.99,PWS SA v1.10,2013-11-23 21:20:00,
2013-11-23 16:28:00,38.8,17.6,29.79,WNW,299,8.5,8.5,42,-99.99,,,-99.99,PWS SA v1.10,2013-11-23 21:28:00,
2013-11-23 16:34:00,38.4,18.7,29.79,WSW,250,5.1,8.0,45,-99.99,,,-99.99,PWS SA v1.10,2013-11-23 21:34:00,
2013-11-23 16:40:00,38.2,18.9,29.79,North,0,0.0,8.0,46,-99.99,,,-99.99,PWS SA v1.10,2013-11-23 21:40:00,
2013-11-23 16:46:00,37.7,19.9,29.79,North,0,0.0,8.0,49,-99.99,,,-99.99,PWS SA v1.10,2013-11-23 21:46:00,
2013-11-23 16:52:00,37.7,20.3,29.79,WSW,249,3.4,6.0,50,-99.99,,,-99.99,PWS SA v1.10,2013-11-23 21:52:00,
2013-11-23 16:58:00,37.6,19.8,29.79,North,0,0.0,6.0,49,-99.99,,,-99.99,PWS SA v1.10,2013-11-23 21:58:00,
2013-11-23 17:04:00,37.5,21.0,29.78,North,0,0.0,6.0,52,-99.99,,,-99.99,PWS SA v1.10,2013-11-23 22:04:00,
2013-11-23 17:10:00,37.1,20.5,29.79,North,0,0.0,5.0,52,-99.99,,,-99.99,PWS SA v1.10,2013-11-23 22:10:00,
2013-11-23 17:16:00,37.1,20.2,29.78,West,267,3.4,3.4,51,-99.99,,,-99.99,PWS SA v1.10,2013-11-23 22:16:00,
2013-11-23 17:22:00,37.1,20.0,29.78,NW,314,1.7,5.0,50,-99.99,,,-99.99,PWS SA v1.10,2013-11-23 22:22:00,
2013-11-23 17:28:00,36.7,20.1,29.78,WNW,282,1.7,5.0,52,-99.99,,,-99.99,PWS SA v1.10,2013-11-23 22:28:00,
2013-11-23 17:34:00,36.6,20.9,29.78,North,0,0.0,3.0,54,-99.99,,,-99.99,PWS SA v1.10,2013-11-23 22:34:00,
2013-11-23 17:40:00,36.5,21.1,29.78,North,0,0.0,3.0,54,-99.99,,,-99.99,PWS SA v1.10,2013-11-23 22:40:00,
2013-11-23 17:46:00,36.3,20.5,29.78,North,0,0.0,1.0,53,-99.99,,,-99.99,PWS SA v1.10,2013-11-23 22:46:00,
2013-11-23 17:52:00,36.1,21.1,29.77,North,0,0.0,1.0,55,-99.99,,,-99.99,PWS SA v1.10,2013-11-23 22:52:00,
2013-11-23 17:58:00,35.9,20.3,29.78,North,0,0.0,5.0,53,-99.99,,,-99.99,PWS SA v1.10,2013-11-23 22:58:00,
2013-11-23 18:04:00,36.0,20.2,29.77,North,0,0.0,5.0,53,-99.99,,,-99.99,PWS SA v1.10,2013-11-23 23:04:00,
2013-11-23 18:10:00,35.7,21.6,29.76,North,0,0.0,1.0,57,-99.99,,,-99.99,PWS SA v1.10,2013-11-23 23:10:00,
2013-11-23 18:12:00,35.8,21.2,29.77,NW,322,1.7,1.7,56,-99.99,,,-99.99,PWS SA v1.10,2013-11-23 23:12:00,
2013-11-23 18:18:00,35.6,21.1,29.77,North,0,0.0,1.0,56,-99.99,,,-99.99,PWS SA v1.10,2013-11-23 23:18:00,
2013-11-23 18:24:00,36.2,20.0,29.77,North,0,0.0,3.0,53,-99.99,,,-99.99,PWS SA v1.10,2013-11-23 23:24:00,
2013-11-23 18:30:00,36.3,20.4,29.77,NNW,333,1.7,3.0,53,-99.99,,,-99.99,PWS SA v1.10,2013-11-23 23:30:00,
2013-11-23 18:36:00,36.5,20.1,29.77,NNW,345,5.1,8.0,52,-99.99,,,-99.99,PWS SA v1.10,2013-11-23 23:36:00,
2013-11-23 18:42:00,36.5,20.6,29.77,West,280,3.4,8.0,53,-99.99,,,-99.99,PWS SA v1.10,2013-11-23 23:42:00,
2013-11-23 18:48:00,36.7,20.2,29.77,North,0,0.0,5.0,52,-99.99,,,-99.99,PWS SA v1.10,2013-11-23 23:48:00,
2013-11-23 18:54:00,36.6,19.9,29.77,West,279,1.7,6.0,51,-99.99,,,-99.99,PWS SA v1.10,2013-11-23 23:54:00,
2013-11-23 19:00:00,36.5,20.4,29.76,North,0,0.0,6.0,52,-99.99,,,-99.99,PWS SA v1.10,2013-11-24 00:00:00,
2013-11-23 19:06:00,36.5,20.6,29.76,North,0,0.0,8.0,53,-99.99,,,-99.99,PWS SA v1.10,2013-11-24 00:06:00,
2013-11-23 19:12:00,36.5,20.5,29.76,WSW,252,3.4,8.0,53,-99.99,,,-99.99,PWS SA v1.10,2013-11-24 00:12:00,
2013-11-23 19:18:00,36.5,20.6,29.76,West,275,5.1,6.0,53,-99.99,,,-99.99,PWS SA v1.10,2013-11-24 00:18:00,
2013-11-23 19:24:00,36.5,21.0,29.76,North,0,0.0,12.0,54,-99.99,,,-99.99,PWS SA v1.10,2013-11-24 00:24:00,
2013-11-23 19:30:00,36.3,21.4,29.75,SW,219,1.7,12.0,55,-99.99,,,-99.99,PWS SA v1.10,2013-11-24 00:30:00,
2013-11-23 19:36:00,36.5,21.2,29.76,West,279,5.1,8.0,55,-99.99,,,-99.99,PWS SA v1.10,2013-11-24 00:36:00,
2013-11-23 19:42:00,36.6,20.4,29.75,West,261,5.1,8.0,52,-99.99,,,-99.99,PWS SA v1.10,2013-11-24 00:42:00,
2013-11-23 19:48:00,36.4,20.8,29.76,West,269,1.7,8.0,53,-99.99,,,-99.99,PWS SA v1.10,2013-11-24 00:48:00,
2013-11-23 19:56:00,36.4,21.0,29.77,WNW,288,10.2,10.2,54,-99.99,,,-99.99,PWS SA v1.10,2013-11-24 00:56:00,
2013-11-23 20:02:00,36.4,21.5,29.76,SW,223,3.4,10.0,55,-99.99,,,-99.99,PWS SA v1.10,2013-11-24 01:02:00,
2013-11-23 20:08:00,36.5,20.5,29.77,WNW,303,13.7,15.0,53,-99.99,,,-99.99,PWS SA v1.10,2013-11-24 01:08:00,
2013-11-23 20:14:00,35.7,24.9,29.78,NNW,338,3.4,15.0,65,-99.99,,,-99.99,PWS SA v1.10,2013-11-24 01:14:00,
2013-11-23 20:20:00,34.8,27.2,29.78,West,277,5.1,13.0,74,-99.99,,,-99.99,PWS SA v1.10,2013-11-24 01:20:00,
2013-11-23 20:26:00,34.4,27.7,29.78,North,0,0.0,10.0,77,-99.99,,,-99.99,PWS SA v1.10,2013-11-24 01:26:00,
2013-11-23 20:32:00,33.9,27.4,29.77,NW,304,6.8,12.0,77,-99.99,,,-99.99,PWS SA v1.10,2013-11-24 01:32:00,
2013-11-23 20:38:00,33.8,26.5,29.77,WSW,238,1.7,12.0,76,-99.99,,,-99.99,PWS SA v1.10,2013-11-24 01:38:00,
2013-11-23 20:44:00,33.6,26.1,29.77,WSW,238,1.7,6.0,74,-99.99,,,-99.99,PWS SA v1.10,2013-11-24 01:44:00,
2013-11-23 20:50:00,33.7,25.8,29.77,WSW,246,5.1,6.0,74,-99.99,,,-99.99,PWS SA v1.10,2013-11-24 01:50:00,
2013-11-23 20:56:00,33.5,25.8,29.77,NNW,327,5.1,5.1,73,-99.99,,,-99.99,PWS SA v1.10,2013-11-24 01:56:00,
2013-11-23 21:02:00,33.5,25.1,29.76,SSE,148,3.4,5.0,72,-99.99,,,-99.99,PWS SA v1.10,2013-11-24 02:02:00,
2013-11-23 21:08:00,33.5,25.1,29.76,West,269,3.4,6.0,72,-99.99,,,-99.99,PWS SA v1.10,2013-11-24 02:08:00,
2013-11-23 21:14:00,33.4,25.0,29.76,West,272,5.1,6.0,71,-99.99,,,-99.99,PWS SA v1.10,2013-11-24 02:14:00,
2013-11-23 21:20:00,33.5,24.6,29.78,West,262,3.4,6.0,70,-99.99,,,-99.99,PWS SA v1.10,2013-11-24 02:20:00,
2013-11-23 21:26:00,33.4,23.8,29.78,NNE,20,8.5,13.0,68,-99.99,,,-99.99,PWS SA v1.10,2013-11-24 02:26:00,
2013-11-23 21:32:00,33.0,22.9,29.78,NNW,335,6.8,13.0,67,-99.99,,,-99.99,PWS SA v1.10,2013-11-24 02:32:00,
2013-11-23 21:38:00,32.5,23.0,29.78,WNW,286,3.4,13.0,68,-99.99,,,-99.99,PWS SA v1.10,2013-11-24 02:38:00,
2013-11-23 21:44:00,31.9,22.9,29.78,NW,312,5.1,13.0,69,-99.99,,,-99.99,PWS SA v1.10,2013-11-24 02:44:00,
2013-11-23 21:50:00,31.6,22.9,29.77,WNW,285,1.7,11.0,71,-99.99,,,-99.99,PWS SA v1.10,2013-11-24 02:50:00,
2013-11-23 21:56:00,31.6,22.6,29.77,NW,310,6.8,11.0,70,-99.99,,,-99.99,PWS SA v1.10,2013-11-24 02:56:00,
2013-11-23 22:02:00,31.6,23.2,29.78,West,269,3.4,6.0,71,-99.99,,,-99.99,PWS SA v1.10,2013-11-24 03:02:00,
2013-11-23 22:08:00,31.4,22.7,29.78,North,0,0.0,6.0,70,-99.99,,,-99.99,PWS SA v1.10,2013-11-24 03:08:00,
2013-11-23 22:14:00,31.4,22.8,29.77,West,270,1.7,3.0,70,-99.99,,,-99.99,PWS SA v1.10,2013-11-24 03:14:00,
2013-11-23 22:20:00,31.2,23.0,29.77,WSW,244,1.7,13.0,71,-99.99,,,-99.99,PWS SA v1.10,2013-11-24 03:20:00,
2013-11-23 22:26:00,31.2,23.1,29.77,SW,222,5.1,13.0,73,-99.99,,,-99.99,PWS SA v1.10,2013-11-24 03:26:00,
2013-11-23 22:32:00,31.0,23.4,29.77,North,0,0.0,13.0,73,-99.99,,,-99.99,PWS SA v1.10,2013-11-24 03:32:00,
2013-11-23 22:38:00,31.1,23.1,29.77,West,264,3.4,6.0,72,-99.99,,,-99.99,PWS SA v1.10,2013-11-24 03:38:00,
2013-11-23 22:44:00,30.8,22.9,29.78,NW,320,3.4,6.0,72,-99.99,,,-99.99,PWS SA v1.10,2013-11-24 03:44:00,
2013-11-23 22:50:00,31.2,21.8,29.77,NNW,330,1.7,6.0,68,-99.99,,,-99.99,PWS SA v1.10,2013-11-24 03:50:00,
2013-11-23 22:56:00,31.3,20.8,29.77,North,0,0.0,12.0,65,-99.99,,,-99.99,PWS SA v1.10,2013-11-24 03:56:00,
2013-11-23 23:02:00,31.5,19.7,29.77,West,269,5.1,13.0,62,-99.99,,,-99.99,PWS SA v1.10,2013-11-24 04:02:00,
2013-11-23 23:08:00,31.6,20.4,29.77,West,259,3.4,13.0,63,-99.99,,,-99.99,PWS SA v1.10,2013-11-24 04:08:00,
2013-11-23 23:14:00,31.3,19.7,29.77,WSW,249,6.8,13.0,62,-99.99,,,-99.99,PWS SA v1.10,2013-11-24 04:14:00,
2013-11-23 23:20:00,31.2,19.2,29.77,NW,317,5.1,13.0,61,-99.99,,,-99.99,PWS SA v1.10,2013-11-24 04:20:00,
2013-11-23 23:26:00,31.2,20.0,29.77,WSW,238,5.1,11.0,63,-99.99,,,-99.99,PWS SA v1.10,2013-11-24 04:26:00,
2013-11-23 23:32:00,31.1,19.6,29.77,NNW,334,5.1,11.0,62,-99.99,,,-99.99,PWS SA v1.10,2013-11-24 04:32:00,
2013-11-23 23:38:00,30.9,19.6,29.77,WNW,298,1.7,10.0,62,-99.99,,,-99.99,PWS SA v1.10,2013-11-24 04:38:00,
2013-11-23 23:44:00,30.9,18.6,29.77,North,358,5.1,5.1,60,-99.99,,,-99.99,PWS SA v1.10,2013-11-24 04:44:00,
2013-11-23 23:50:00,30.9,19.4,29.77,NNW,337,10.2,10.2,62,-99.99,,,-99.99,PWS SA v1.10,2013-11-24 04:50:00,
2013-11-23 23:56:00,30.9,19.5,29.76,SSW,213,3.4,10.0,62,-99.99,,,-99.99,PWS SA v1.10,2013-11-24 04:56:00,